N839BA KBFI-EGHI

Flight info

Callsign N839BA
Flight time N/A
Altitude 33000
Route ALPSE DCT YXC DCT SIGPA DCT FUDGY DCT 58N100W/N0465F350 DCT YYQ DCT RONPU DCT IKMAN/M080F370 DCT KETLA DCT 62N050W 61N040W 60N030W 58N020W DCT SUNOT/N0460F370 DCT BEGID DCT NIBOG DCT ERNAN DCT DEXEN UY124 AMPIT L15 KEPAD L151 PEPUL Y322 BUGUP
Aircraft B737/M-SDE2E3FGHIRWXY/LB1

Departure

Time N/A
Airport King County International Airport - Boeing Field (KBFI)

Arrival

Time 2026-05-07 12:41
Airport Southampton Airport (EGHI)
Time Latitude Longitude Altitude Speed Heading
2026-05-07 03:47 50.25550 -114.87612 32879 ft 481 kts 50°
2026-05-07 03:48 50.29354 -114.78994 32863 ft 481 kts 50°
2026-05-07 03:48 50.32525 -114.71772 32872 ft 481 kts 50°
2026-05-07 03:49 50.36275 -114.63210 32868 ft 479 kts 50°
2026-05-07 03:49 50.40036 -114.54600 32883 ft 478 kts 50°
2026-05-07 03:50 50.43782 -114.45993 32882 ft 478 kts 50°
2026-05-07 03:50 50.47517 -114.37386 32881 ft 477 kts 50°
2026-05-07 03:51 50.51247 -114.28766 32876 ft 477 kts 50°
2026-05-07 03:51 50.54971 -114.20132 32875 ft 477 kts 50°
2026-05-07 03:52 50.58685 -114.11488 32868 ft 477 kts 50°
2026-05-07 03:52 50.62399 -114.02814 32870 ft 478 kts 50°
2026-05-07 03:53 50.66116 -113.94107 33302 ft 476 kts 50°
2026-05-07 03:53 50.67946 -113.89799 33672 ft 471 kts 50°
2026-05-07 03:53 50.69769 -113.85507 33908 ft 470 kts 50°
2026-05-07 03:53 50.71584 -113.81231 34085 ft 470 kts 50°
2026-05-07 03:54 50.73406 -113.76937 34213 ft 471 kts 50°
2026-05-07 03:54 50.77051 -113.68321 34488 ft 471 kts 51°
2026-05-07 03:54 50.78865 -113.64014 34692 ft 470 kts 51°
2026-05-07 03:55 50.80676 -113.59711 34805 ft 470 kts 51°
2026-05-07 03:55 50.84275 -113.51141 34843 ft 471 kts 51°
2026-05-07 03:56 50.87912 -113.42449 34857 ft 470 kts 51°
2026-05-07 03:56 50.91490 -113.33873 34854 ft 469 kts 51°
2026-05-07 03:57 50.95078 -113.25242 34852 ft 469 kts 52°
2026-05-07 03:57 50.98660 -113.16595 34850 ft 468 kts 52°
2026-05-07 03:58 51.02231 -113.07952 34850 ft 468 kts 52°
2026-05-07 03:58 51.05796 -112.99291 34857 ft 468 kts 52°
2026-05-07 03:59 51.09353 -112.90619 34851 ft 468 kts 52°
2026-05-07 03:59 51.12902 -112.81937 34853 ft 467 kts 52°
2026-05-07 04:00 51.16441 -112.73254 34862 ft 467 kts 53°
2026-05-07 04:00 51.19977 -112.64555 34873 ft 468 kts 53°
2026-05-07 04:01 51.23505 -112.55836 34868 ft 468 kts 53°
2026-05-07 04:01 51.27029 -112.47098 34873 ft 468 kts 53°
2026-05-07 04:02 51.30552 -112.38336 34871 ft 469 kts 53°
2026-05-07 04:02 51.34072 -112.29551 34868 ft 469 kts 54°
2026-05-07 04:03 51.37582 -112.20755 34874 ft 469 kts 54°
2026-05-07 04:03 51.41086 -112.11953 34865 ft 468 kts 54°
2026-05-07 04:04 51.44580 -112.03145 34851 ft 468 kts 54°
2026-05-07 04:04 51.48066 -111.94326 34855 ft 468 kts 54°
2026-05-07 04:05 51.51538 -111.85511 34847 ft 466 kts 54°
2026-05-07 04:05 51.54995 -111.76706 34851 ft 466 kts 54°
2026-05-07 04:06 51.58437 -111.67905 34853 ft 464 kts 54°
2026-05-07 04:06 51.61842 -111.59174 34846 ft 463 kts 54°
2026-05-07 04:07 51.65255 -111.50390 34860 ft 463 kts 54°
2026-05-07 04:07 51.68662 -111.41593 34860 ft 463 kts 54°
2026-05-07 04:08 51.72028 -111.32871 34862 ft 463 kts 54°
2026-05-07 04:08 51.75420 -111.24048 34863 ft 463 kts 54°
2026-05-07 04:09 51.78806 -111.15212 34862 ft 463 kts 54°
2026-05-07 04:09 51.82189 -111.06355 34860 ft 463 kts 54°
2026-05-07 04:10 51.85568 -110.97470 34861 ft 464 kts 54°
2026-05-07 04:10 51.88943 -110.88573 34874 ft 464 kts 54°
2026-05-07 04:11 51.92310 -110.79667 34873 ft 464 kts 54°
2026-05-07 04:11 51.95669 -110.70749 34869 ft 463 kts 54°
2026-05-07 04:12 51.99013 -110.61847 34871 ft 462 kts 54°
2026-05-07 04:12 52.02320 -110.53002 34884 ft 461 kts 54°
2026-05-07 04:13 52.05639 -110.44094 34874 ft 461 kts 54°
2026-05-07 04:13 52.08947 -110.35186 34884 ft 460 kts 54°
2026-05-07 04:14 52.12246 -110.26269 34880 ft 459 kts 54°
2026-05-07 04:14 52.15532 -110.17358 34879 ft 459 kts 54°
2026-05-07 04:15 52.18807 -110.08452 34880 ft 458 kts 54°
2026-05-07 04:15 52.22276 -109.99802 34884 ft 452 kts 45°
2026-05-07 04:16 52.26791 -109.92849 34901 ft 445 kts 36°
2026-05-07 04:16 52.31519 -109.86324 34895 ft 445 kts 36°
2026-05-07 04:17 52.36232 -109.79774 34891 ft 445 kts 36°
2026-05-07 04:17 52.40926 -109.73157 34900 ft 445 kts 36°
2026-05-07 04:18 52.45612 -109.66504 34895 ft 446 kts 36°
2026-05-07 04:18 52.50292 -109.59830 34901 ft 446 kts 36°
2026-05-07 04:19 52.54970 -109.53140 34897 ft 446 kts 36°
2026-05-07 04:19 52.59637 -109.46448 34899 ft 445 kts 36°
2026-05-07 04:20 52.64297 -109.39749 34893 ft 444 kts 36°
2026-05-07 04:20 52.68908 -109.33098 34900 ft 443 kts 36°
2026-05-07 04:21 52.75850 -109.23047 34901 ft 442 kts 36°
2026-05-07 04:21 52.80465 -109.16341 34906 ft 441 kts 36°
2026-05-07 04:22 52.85067 -109.09636 34919 ft 441 kts 36°
2026-05-07 04:22 52.89657 -109.02930 34915 ft 440 kts 36°
2026-05-07 04:23 52.94235 -108.96220 34914 ft 439 kts 36°
2026-05-07 04:23 52.98797 -108.89512 34919 ft 438 kts 36°
2026-05-07 04:24 53.03346 -108.82804 34915 ft 437 kts 36°
2026-05-07 04:24 53.07888 -108.76084 34919 ft 437 kts 36°
2026-05-07 04:25 53.12423 -108.69360 34917 ft 437 kts 36°
2026-05-07 04:25 53.16953 -108.62622 34913 ft 436 kts 36°
2026-05-07 04:26 53.21473 -108.55880 34918 ft 436 kts 36°
2026-05-07 04:26 53.25989 -108.49124 34918 ft 436 kts 36°
2026-05-07 04:27 53.30501 -108.42349 34916 ft 436 kts 36°
2026-05-07 04:27 53.35006 -108.35570 34917 ft 435 kts 36°
2026-05-07 04:28 53.39503 -108.28783 34917 ft 435 kts 36°
2026-05-07 04:28 53.43997 -108.21978 34918 ft 435 kts 36°
2026-05-07 04:29 53.48481 -108.15167 34929 ft 434 kts 36°
2026-05-07 04:29 53.52929 -108.08392 34928 ft 434 kts 36°
2026-05-07 04:30 53.57400 -108.01562 34925 ft 434 kts 36°
2026-05-07 04:30 53.61870 -107.94713 34931 ft 435 kts 36°
2026-05-07 04:31 53.66333 -107.87854 34932 ft 434 kts 36°
2026-05-07 04:31 53.70778 -107.81003 34926 ft 432 kts 36°
2026-05-07 04:32 53.75203 -107.74161 34935 ft 431 kts 36°
2026-05-07 04:32 53.79622 -107.67308 34938 ft 431 kts 36°
2026-05-07 04:33 53.84033 -107.60447 34932 ft 431 kts 36°
2026-05-07 04:33 53.88439 -107.53576 34939 ft 431 kts 36°
2026-05-07 04:34 53.92844 -107.46684 34941 ft 431 kts 36°
2026-05-07 04:34 53.97250 -107.39769 34942 ft 431 kts 36°
2026-05-07 04:35 54.01650 -107.32840 34942 ft 432 kts 36°
2026-05-07 04:35 54.05306 -107.27065 34946 ft 432 kts 36°
2026-05-07 04:36 54.09707 -107.20101 34943 ft 432 kts 36°
2026-05-07 04:36 54.14101 -107.13125 34943 ft 431 kts 36°
2026-05-07 04:37 54.18489 -107.06138 34943 ft 431 kts 36°
2026-05-07 04:37 54.22863 -106.99150 34943 ft 430 kts 36°
2026-05-07 04:38 54.27226 -106.92159 34943 ft 430 kts 36°
2026-05-07 04:38 54.31578 -106.85165 34939 ft 428 kts 36°
2026-05-07 04:39 54.35913 -106.78174 34949 ft 427 kts 36°
2026-05-07 04:39 54.40235 -106.71181 34959 ft 427 kts 36°
2026-05-07 04:40 54.44549 -106.64188 34955 ft 426 kts 36°
2026-05-07 04:40 54.48857 -106.57184 34954 ft 426 kts 36°
2026-05-07 04:41 54.53155 -106.50170 34957 ft 426 kts 36°
2026-05-07 04:41 54.57448 -106.43144 34950 ft 426 kts 36°
2026-05-07 04:42 54.61734 -106.36107 34961 ft 426 kts 36°
2026-05-07 04:42 54.66020 -106.29048 34965 ft 425 kts 36°
2026-05-07 04:43 54.70297 -106.21981 34959 ft 426 kts 36°
2026-05-07 04:43 54.74548 -106.14940 34964 ft 426 kts 36°
2026-05-07 04:44 54.78830 -106.07824 34967 ft 427 kts 36°
2026-05-07 04:44 54.83109 -106.00687 34973 ft 427 kts 37°
2026-05-07 04:45 54.87391 -105.93528 34982 ft 427 kts 37°
2026-05-07 04:45 54.91662 -105.86364 34967 ft 427 kts 37°
2026-05-07 04:46 54.95925 -105.79191 34968 ft 426 kts 37°
2026-05-07 04:46 55.00173 -105.72020 34974 ft 425 kts 37°
2026-05-07 04:47 55.04407 -105.64846 34982 ft 424 kts 37°
2026-05-07 04:47 55.08634 -105.57665 34979 ft 423 kts 37°
2026-05-07 04:48 55.12843 -105.50493 34982 ft 423 kts 37°
2026-05-07 04:48 55.17045 -105.43314 34979 ft 422 kts 37°
2026-05-07 04:49 55.21233 -105.36133 34983 ft 421 kts 37°
2026-05-07 04:49 55.25411 -105.28949 34983 ft 421 kts 37°
2026-05-07 04:50 55.29556 -105.21798 34985 ft 421 kts 37°
2026-05-07 04:50 55.33728 -105.14582 34984 ft 421 kts 37°
2026-05-07 04:51 55.37925 -105.07294 34985 ft 422 kts 37°
2026-05-07 04:51 55.42066 -105.00087 34980 ft 421 kts 37°
2026-05-07 04:52 55.46222 -104.92821 34985 ft 421 kts 37°
2026-05-07 04:52 55.50376 -104.85539 34981 ft 421 kts 37°
2026-05-07 04:53 55.54528 -104.78238 34982 ft 421 kts 38°
2026-05-07 04:53 55.58671 -104.70933 34986 ft 421 kts 38°
2026-05-07 04:54 55.62813 -104.63607 34976 ft 421 kts 38°
2026-05-07 04:54 55.66945 -104.56276 34965 ft 420 kts 38°
2026-05-07 04:55 55.71062 -104.48946 34970 ft 419 kts 38°
2026-05-07 04:55 55.75168 -104.41613 34975 ft 418 kts 38°
2026-05-07 04:56 55.79263 -104.34276 34966 ft 417 kts 38°
2026-05-07 04:56 55.83340 -104.26947 34976 ft 416 kts 38°
2026-05-07 04:57 55.87404 -104.19618 34971 ft 416 kts 38°
2026-05-07 04:57 55.91458 -104.12285 34970 ft 415 kts 38°
2026-05-07 04:58 55.95503 -104.04947 34973 ft 414 kts 38°
2026-05-07 04:58 55.99538 -103.97603 34972 ft 414 kts 38°
2026-05-07 04:59 56.03575 -103.90233 34970 ft 414 kts 38°
2026-05-07 04:59 56.07574 -103.82907 34972 ft 414 kts 38°
2026-05-07 05:00 56.11596 -103.75517 34970 ft 415 kts 38°
2026-05-07 05:00 56.15624 -103.68093 34977 ft 416 kts 39°
2026-05-07 05:01 56.19685 -103.60584 34974 ft 417 kts 39°
2026-05-07 05:01 56.23695 -103.53144 34974 ft 418 kts 39°
2026-05-07 05:02 56.27741 -103.45613 34975 ft 419 kts 39°
2026-05-07 05:02 56.31795 -103.38040 34977 ft 420 kts 39°
2026-05-07 05:03 56.35851 -103.30443 34971 ft 421 kts 39°
2026-05-07 05:03 56.39912 -103.22809 34976 ft 422 kts 40°
2026-05-07 05:04 56.43977 -103.15143 34971 ft 423 kts 40°
2026-05-07 05:04 56.48043 -103.07448 34966 ft 424 kts 40°
2026-05-07 05:05 56.52116 -102.99715 34977 ft 425 kts 40°
2026-05-07 05:05 56.56187 -102.91959 34971 ft 425 kts 40°
2026-05-07 05:06 56.60266 -102.84164 34976 ft 426 kts 40°
2026-05-07 05:06 56.64347 -102.76338 34968 ft 427 kts 41°
2026-05-07 05:07 56.68428 -102.68486 34963 ft 428 kts 41°
2026-05-07 05:07 56.72514 -102.60600 34973 ft 428 kts 41°
2026-05-07 05:08 56.76598 -102.52689 34971 ft 428 kts 41°
2026-05-07 05:08 56.80680 -102.44755 34972 ft 429 kts 41°
2026-05-07 05:09 56.84752 -102.36813 34972 ft 429 kts 41°
2026-05-07 05:09 56.88823 -102.28842 34974 ft 429 kts 41°
2026-05-07 05:10 56.92889 -102.20852 34972 ft 429 kts 41°
2026-05-07 05:10 56.96957 -102.12840 34971 ft 429 kts 42°
2026-05-07 05:11 57.01023 -102.04801 34975 ft 430 kts 42°
2026-05-07 05:11 57.05089 -101.96734 34976 ft 431 kts 42°
2026-05-07 05:12 57.09156 -101.88634 34980 ft 431 kts 43°
2026-05-07 05:12 57.13227 -101.80501 34976 ft 433 kts 43°
2026-05-07 05:13 57.17305 -101.72321 34975 ft 434 kts 43°
2026-05-07 05:13 57.21364 -101.64155 34976 ft 435 kts 43°
2026-05-07 05:14 57.25457 -101.55891 34967 ft 437 kts 43°
2026-05-07 05:14 57.29549 -101.47596 34973 ft 436 kts 43°
2026-05-07 05:15 57.33635 -101.39283 34972 ft 437 kts 43°
2026-05-07 05:15 57.37721 -101.30947 34971 ft 437 kts 43°
2026-05-07 05:16 57.41803 -101.22587 34974 ft 437 kts 44°
2026-05-07 05:16 57.45872 -101.14226 34966 ft 436 kts 44°
2026-05-07 05:17 57.49934 -101.05848 34975 ft 436 kts 44°
2026-05-07 05:17 57.53983 -100.97462 34966 ft 436 kts 44°
2026-05-07 05:18 57.58025 -100.89061 34974 ft 435 kts 44°
2026-05-07 05:18 57.62068 -100.80633 34970 ft 436 kts 44°
2026-05-07 05:19 57.66102 -100.72187 34969 ft 436 kts 44°
2026-05-07 05:19 57.70108 -100.63772 34975 ft 437 kts 45°
2026-05-07 05:20 57.74144 -100.55264 34973 ft 437 kts 45°
2026-05-07 05:20 57.78180 -100.46725 34967 ft 438 kts 45°
2026-05-07 05:21 57.84233 -100.33859 34955 ft 439 kts 45°
2026-05-07 05:22 57.87586 -100.26699 34954 ft 439 kts 45°
2026-05-07 05:22 57.91620 -100.18055 34953 ft 440 kts 45°
2026-05-07 05:23 57.95656 -100.09383 34953 ft 440 kts 45°
2026-05-07 05:23 57.99391 -100.00214 34953 ft 446 kts 57°
2026-05-07 05:24 58.01748 -99.89328 34968 ft 452 kts 70°
2026-05-07 05:24 58.03434 -99.77889 34957 ft 453 kts 71°
2026-05-07 05:25 58.05090 -99.66415 34953 ft 453 kts 70°
2026-05-07 05:25 58.06771 -99.54935 34954 ft 453 kts 70°
2026-05-07 05:26 58.08460 -99.43472 34957 ft 453 kts 70°
2026-05-07 05:26 58.10146 -99.32001 34956 ft 453 kts 71°
2026-05-07 05:27 58.11818 -99.20537 34945 ft 452 kts 71°
2026-05-07 05:27 58.13480 -99.09056 34947 ft 452 kts 71°
2026-05-07 05:28 58.15126 -98.97596 34943 ft 451 kts 71°
2026-05-07 05:28 58.16758 -98.86152 34944 ft 450 kts 71°
2026-05-07 05:29 58.18378 -98.74720 34944 ft 449 kts 71°
2026-05-07 05:29 58.19986 -98.63295 34946 ft 449 kts 71°
2026-05-07 05:30 58.21583 -98.51866 34943 ft 448 kts 72°
2026-05-07 05:30 58.23167 -98.40430 34947 ft 448 kts 72°
2026-05-07 05:31 58.24742 -98.28983 34942 ft 448 kts 72°
2026-05-07 05:31 58.26307 -98.17522 34950 ft 448 kts 72°
2026-05-07 05:32 58.27860 -98.06064 34943 ft 448 kts 72°
2026-05-07 05:32 58.29394 -97.94665 34950 ft 448 kts 72°
2026-05-07 05:33 58.30929 -97.83169 34945 ft 449 kts 72°
2026-05-07 05:33 58.32454 -97.71654 34936 ft 450 kts 72°
2026-05-07 05:34 58.33972 -97.60109 34934 ft 450 kts 72°
2026-05-07 05:34 58.35481 -97.48543 34936 ft 450 kts 72°
2026-05-07 05:35 58.36979 -97.36975 34938 ft 449 kts 73°
2026-05-07 05:35 58.38463 -97.25422 34928 ft 449 kts 73°
2026-05-07 05:36 58.39937 -97.13856 34926 ft 449 kts 73°
2026-05-07 05:36 58.41399 -97.02287 34924 ft 448 kts 73°
2026-05-07 05:37 58.42850 -96.90724 34929 ft 448 kts 73°
2026-05-07 05:37 58.44292 -96.79147 34916 ft 449 kts 73°
2026-05-07 05:38 58.45723 -96.67552 34917 ft 448 kts 73°
2026-05-07 05:38 58.47143 -96.55951 34914 ft 449 kts 73°
2026-05-07 05:39 58.48554 -96.44335 34912 ft 449 kts 73°
2026-05-07 05:39 58.49955 -96.32696 34906 ft 449 kts 74°
2026-05-07 05:40 58.51347 -96.21039 34904 ft 450 kts 74°
2026-05-07 05:40 58.52719 -96.09444 34898 ft 450 kts 74°
2026-05-07 05:41 58.54093 -95.97756 34897 ft 450 kts 74°
2026-05-07 05:41 58.55455 -95.86057 34892 ft 451 kts 74°
2026-05-07 05:42 58.56809 -95.74335 34884 ft 451 kts 74°
2026-05-07 05:42 58.58151 -95.62613 34886 ft 451 kts 75°
2026-05-07 05:43 58.59483 -95.50868 34884 ft 451 kts 75°
2026-05-07 05:43 58.60805 -95.39091 34879 ft 452 kts 75°
2026-05-07 05:44 58.62119 -95.27312 34867 ft 452 kts 75°
2026-05-07 05:44 58.63421 -95.15527 34871 ft 451 kts 75°
2026-05-07 05:45 58.64710 -95.03750 34860 ft 451 kts 75°
2026-05-07 05:45 58.65989 -94.91956 34863 ft 451 kts 75°
2026-05-07 05:46 58.67255 -94.80161 34861 ft 451 kts 75°
2026-05-07 05:46 58.68512 -94.68350 34861 ft 451 kts 75°
2026-05-07 05:47 58.69761 -94.56519 34854 ft 452 kts 75°
2026-05-07 05:47 58.70999 -94.44668 34853 ft 452 kts 76°
2026-05-07 05:48 58.72226 -94.32813 34851 ft 452 kts 76°
2026-05-07 05:48 58.73446 -94.20940 34851 ft 452 kts 76°
2026-05-07 05:49 58.75194 -94.09397 34844 ft 447 kts 61°
2026-05-07 05:49 58.78030 -93.98784 34850 ft 446 kts 59°
2026-05-07 05:50 58.80921 -93.88212 34848 ft 446 kts 60°
2026-05-07 05:50 58.83786 -93.77576 34857 ft 447 kts 60°
2026-05-07 05:51 58.86623 -93.66883 34855 ft 447 kts 60°
2026-05-07 05:51 58.89445 -93.56159 34852 ft 448 kts 60°
2026-05-07 05:52 58.92263 -93.45397 34851 ft 448 kts 60°
2026-05-07 05:52 58.95070 -93.34621 34850 ft 448 kts 61°
2026-05-07 05:53 58.97872 -93.23818 34853 ft 449 kts 61°
2026-05-07 05:53 59.00671 -93.12980 34848 ft 449 kts 61°
2026-05-07 05:54 59.03444 -93.02188 34841 ft 450 kts 61°
2026-05-07 05:54 59.06224 -92.91301 34841 ft 449 kts 61°
2026-05-07 05:55 59.08993 -92.80409 34841 ft 449 kts 61°
2026-05-07 05:55 59.11749 -92.69523 34843 ft 449 kts 62°
2026-05-07 05:56 59.14497 -92.58613 34844 ft 448 kts 62°
2026-05-07 05:56 59.17233 -92.47695 34839 ft 448 kts 62°
2026-05-07 05:57 59.19958 -92.36763 34834 ft 448 kts 62°
2026-05-07 05:57 59.22677 -92.25805 34834 ft 449 kts 62°
2026-05-07 05:58 59.25385 -92.14842 34832 ft 448 kts 62°
2026-05-07 05:58 59.28080 -92.03868 34836 ft 448 kts 62°
2026-05-07 05:59 59.30765 -91.92885 34818 ft 448 kts 62°
2026-05-07 05:59 59.33446 -91.81865 34834 ft 448 kts 63°
2026-05-07 06:00 59.36119 -91.70819 34818 ft 449 kts 63°
2026-05-07 06:00 59.38788 -91.59733 34828 ft 450 kts 63°
2026-05-07 06:01 59.41451 -91.48617 34821 ft 450 kts 63°
2026-05-07 06:01 59.44106 -91.37465 34821 ft 451 kts 63°
2026-05-07 06:02 59.46760 -91.26275 34812 ft 452 kts 63°
2026-05-07 06:02 59.49405 -91.15064 34820 ft 452 kts 63°
2026-05-07 06:03 59.52041 -91.03835 34810 ft 452 kts 63°
2026-05-07 06:03 59.54667 -90.92583 34817 ft 452 kts 63°
2026-05-07 06:04 59.57285 -90.81310 34808 ft 452 kts 63°
2026-05-07 06:04 59.59892 -90.70022 34801 ft 452 kts 64°
2026-05-07 06:05 59.62469 -90.58801 34795 ft 451 kts 64°
2026-05-07 06:05 59.65070 -90.47421 34800 ft 451 kts 64°
2026-05-07 06:06 59.67624 -90.36185 34793 ft 451 kts 64°
2026-05-07 06:06 59.70188 -90.24859 34791 ft 451 kts 64°
2026-05-07 06:07 59.72736 -90.13523 34790 ft 451 kts 64°
2026-05-07 06:07 59.75276 -90.02169 34786 ft 450 kts 64°
2026-05-07 06:08 59.77804 -89.90807 34790 ft 450 kts 64°
2026-05-07 06:08 59.80324 -89.79423 34788 ft 450 kts 64°
2026-05-07 06:09 59.82406 -89.69959 34781 ft 449 kts 64°
2026-05-07 06:09 59.84903 -89.58561 34776 ft 450 kts 65°
2026-05-07 06:10 59.87393 -89.47142 34780 ft 450 kts 65°
2026-05-07 06:10 59.89874 -89.35698 34777 ft 451 kts 65°
2026-05-07 06:11 59.92351 -89.24214 34765 ft 451 kts 65°
2026-05-07 06:11 59.94821 -89.12696 34759 ft 452 kts 65°
2026-05-07 06:12 59.97286 -89.01129 34759 ft 453 kts 65°
2026-05-07 06:12 59.99744 -88.89529 34761 ft 454 kts 65°
2026-05-07 06:13 60.02195 -88.77902 34760 ft 453 kts 65°
2026-05-07 06:13 60.04635 -88.66260 34750 ft 454 kts 65°
2026-05-07 06:14 60.07066 -88.54595 34748 ft 454 kts 65°
2026-05-07 06:14 60.09488 -88.42913 34747 ft 454 kts 66°
2026-05-07 06:15 60.11899 -88.31213 34747 ft 454 kts 66°
2026-05-07 06:15 60.14279 -88.19590 34750 ft 453 kts 66°
2026-05-07 06:16 60.16666 -88.07879 34740 ft 453 kts 66°
2026-05-07 06:16 60.19038 -87.96163 34740 ft 453 kts 66°
2026-05-07 06:17 60.21400 -87.84428 34741 ft 452 kts 66°
2026-05-07 06:17 60.23749 -87.72691 34735 ft 452 kts 66°
2026-05-07 06:18 60.26086 -87.60947 34740 ft 452 kts 66°
2026-05-07 06:18 60.28414 -87.49179 34715 ft 452 kts 66°
2026-05-07 06:19 60.30732 -87.37391 34713 ft 452 kts 67°
2026-05-07 06:19 60.33040 -87.25586 34711 ft 452 kts 67°
2026-05-07 06:20 60.35335 -87.13771 34710 ft 452 kts 67°
2026-05-07 06:20 60.37621 -87.01941 34709 ft 452 kts 67°
2026-05-07 06:21 60.39898 -86.90089 34700 ft 453 kts 67°
2026-05-07 06:21 60.42166 -86.78214 34708 ft 453 kts 67°
2026-05-07 06:22 60.44423 -86.66313 34701 ft 453 kts 68°
2026-05-07 06:22 60.47791 -86.48418 34703 ft 453 kts 68°
2026-05-07 06:23 60.50026 -86.36451 34704 ft 453 kts 68°
2026-05-07 06:23 60.52251 -86.24477 34705 ft 453 kts 68°
2026-05-07 06:24 60.54465 -86.12481 34694 ft 454 kts 68°
2026-05-07 06:24 60.56672 -86.00448 34692 ft 454 kts 68°
2026-05-07 06:25 60.58798 -85.88780 34692 ft 454 kts 68°
2026-05-07 06:25 60.60999 -85.76629 34694 ft 454 kts 68°
2026-05-07 06:26 60.63170 -85.64571 34692 ft 453 kts 69°
2026-05-07 06:26 60.65327 -85.52506 34693 ft 453 kts 69°
2026-05-07 06:27 60.67473 -85.40422 34697 ft 454 kts 69°
2026-05-07 06:27 60.69611 -85.28308 34657 ft 454 kts 69°
2026-05-07 06:28 60.71740 -85.16173 34621 ft 454 kts 69°
2026-05-07 06:28 60.73856 -85.04042 34621 ft 453 kts 69°
2026-05-07 06:29 60.75940 -84.92005 34614 ft 452 kts 69°
2026-05-07 06:29 60.78024 -84.79883 34616 ft 451 kts 69°
2026-05-07 06:30 60.80092 -84.67791 34608 ft 451 kts 70°
2026-05-07 06:30 60.82151 -84.55662 34613 ft 451 kts 70°
2026-05-07 06:31 60.84201 -84.43505 34609 ft 451 kts 70°
2026-05-07 06:31 60.86240 -84.31330 34612 ft 451 kts 70°
2026-05-07 06:32 60.88268 -84.19143 34603 ft 451 kts 70°
2026-05-07 06:32 60.90289 -84.06932 34604 ft 452 kts 70°
2026-05-07 06:33 60.92298 -83.94700 34595 ft 452 kts 70°
2026-05-07 06:33 60.94296 -83.82442 34589 ft 452 kts 70°
2026-05-07 06:34 60.96283 -83.70172 34591 ft 452 kts 71°
2026-05-07 06:34 60.98259 -83.57877 34590 ft 452 kts 71°
2026-05-07 06:35 61.00225 -83.45569 34586 ft 452 kts 71°
2026-05-07 06:35 61.02184 -83.33233 34579 ft 453 kts 71°
2026-05-07 06:36 61.04133 -83.20873 34555 ft 453 kts 71°
2026-05-07 06:36 61.06072 -83.08478 34546 ft 454 kts 71°
2026-05-07 06:37 61.08000 -82.96063 34541 ft 453 kts 71°
2026-05-07 06:37 61.09912 -82.83658 34545 ft 453 kts 71°
2026-05-07 06:38 61.11815 -82.71239 34541 ft 453 kts 72°
2026-05-07 06:38 61.13702 -82.58823 34541 ft 452 kts 72°
2026-05-07 06:39 61.15575 -82.46405 34544 ft 451 kts 72°
2026-05-07 06:39 61.17436 -82.33985 34545 ft 451 kts 72°
2026-05-07 06:40 61.19286 -82.21559 34544 ft 451 kts 72°
2026-05-07 06:40 61.21120 -82.09130 34546 ft 451 kts 72°
2026-05-07 06:41 61.22943 -81.96679 34534 ft 451 kts 72°
2026-05-07 06:41 61.24759 -81.84202 34532 ft 451 kts 73°
2026-05-07 06:42 61.26563 -81.71717 34537 ft 451 kts 73°
2026-05-07 06:42 61.28342 -81.59300 34535 ft 451 kts 73°
2026-05-07 06:43 61.30123 -81.46778 34534 ft 452 kts 73°
2026-05-07 06:43 61.31894 -81.34227 34509 ft 452 kts 73°
2026-05-07 06:44 61.33656 -81.21650 34496 ft 452 kts 73°
2026-05-07 06:44 61.35407 -81.09051 34483 ft 453 kts 73°
2026-05-07 06:45 61.37150 -80.96412 34477 ft 453 kts 73°
2026-05-07 06:45 61.38882 -80.83759 34477 ft 454 kts 74°
2026-05-07 06:46 61.40604 -80.71077 34479 ft 454 kts 74°
2026-05-07 06:46 61.42313 -80.58382 34475 ft 454 kts 74°
2026-05-07 06:47 61.44011 -80.45671 34479 ft 454 kts 74°
2026-05-07 06:47 61.45697 -80.32953 34467 ft 454 kts 74°
2026-05-07 06:48 61.47372 -80.20208 34470 ft 454 kts 75°
2026-05-07 06:48 61.49036 -80.07449 34468 ft 455 kts 75°
2026-05-07 06:49 61.50679 -79.94667 34467 ft 454 kts 75°
2026-05-07 06:49 61.52259 -79.81853 34468 ft 454 kts 76°
2026-05-07 06:50 61.53806 -79.69115 34464 ft 454 kts 76°
2026-05-07 06:50 61.55357 -79.56287 34470 ft 454 kts 76°
2026-05-07 06:51 61.56899 -79.43447 34458 ft 454 kts 76°
2026-05-07 06:51 61.58430 -79.30595 34460 ft 454 kts 76°
2026-05-07 06:52 61.59948 -79.17738 34452 ft 454 kts 76°
2026-05-07 06:52 61.61455 -79.04872 34464 ft 453 kts 76°
2026-05-07 06:53 61.62949 -78.91993 34461 ft 454 kts 76°
2026-05-07 06:53 61.64433 -78.79072 34460 ft 455 kts 77°
2026-05-07 06:54 61.65907 -78.66130 34466 ft 455 kts 77°
2026-05-07 06:54 61.67370 -78.53156 34451 ft 456 kts 77°
2026-05-07 06:55 61.68587 -78.42290 34466 ft 455 kts 77°
2026-05-07 06:55 61.70026 -78.29312 34459 ft 455 kts 77°
2026-05-07 06:56 61.71451 -78.16327 34461 ft 454 kts 77°
2026-05-07 06:56 61.72864 -78.03352 34462 ft 454 kts 78°
2026-05-07 06:57 61.74253 -77.90464 34447 ft 453 kts 78°
2026-05-07 06:57 61.75645 -77.77414 34449 ft 453 kts 78°
2026-05-07 06:58 61.77016 -77.64441 34444 ft 452 kts 78°
2026-05-07 06:58 61.78373 -77.51470 34448 ft 452 kts 78°
2026-05-07 06:59 61.79716 -77.38500 34454 ft 452 kts 78°
2026-05-07 06:59 61.81051 -77.25505 34446 ft 452 kts 78°
2026-05-07 07:00 61.82369 -77.12527 34462 ft 452 kts 79°
2026-05-07 07:00 61.83669 -76.99579 34465 ft 453 kts 79°
2026-05-07 07:01 61.84967 -76.86530 34461 ft 453 kts 79°
2026-05-07 07:01 61.86253 -76.73484 34452 ft 453 kts 79°
2026-05-07 07:02 61.87525 -76.60423 34465 ft 452 kts 79°
2026-05-07 07:02 61.88786 -76.47355 34455 ft 452 kts 80°
2026-05-07 07:03 61.90030 -76.34310 34471 ft 451 kts 80°
2026-05-07 07:03 61.91259 -76.21275 34469 ft 450 kts 80°
2026-05-07 07:04 61.92473 -76.08263 34477 ft 449 kts 80°
2026-05-07 07:04 61.93671 -75.95283 34479 ft 448 kts 80°
2026-05-07 07:05 61.94853 -75.82328 34487 ft 446 kts 81°
2026-05-07 07:05 61.96022 -75.69379 34484 ft 446 kts 81°
2026-05-07 07:06 61.97168 -75.56539 34492 ft 445 kts 81°
2026-05-07 07:06 61.98312 -75.43588 34487 ft 446 kts 81°
2026-05-07 07:07 61.99444 -75.30619 34496 ft 446 kts 81°
2026-05-07 07:07 62.00564 -75.17627 34502 ft 447 kts 82°
2026-05-07 07:08 62.01675 -75.04610 34495 ft 447 kts 82°
2026-05-07 07:08 62.02773 -74.91591 34493 ft 447 kts 82°
2026-05-07 07:09 62.03858 -74.78580 34504 ft 446 kts 82°
2026-05-07 07:09 62.04927 -74.65578 34500 ft 445 kts 82°
2026-05-07 07:10 62.05982 -74.52602 34508 ft 444 kts 83°
2026-05-07 07:10 62.07022 -74.39645 34512 ft 443 kts 83°
2026-05-07 07:11 62.08048 -74.26707 34512 ft 442 kts 83°
2026-05-07 07:11 62.09060 -74.13774 34513 ft 442 kts 83°
2026-05-07 07:12 62.10055 -74.00916 34518 ft 442 kts 83°
2026-05-07 07:12 62.11046 -73.87942 34520 ft 443 kts 83°
2026-05-07 07:13 62.12025 -73.74941 34527 ft 443 kts 83°
2026-05-07 07:13 62.12992 -73.61918 34528 ft 444 kts 83°
2026-05-07 07:14 62.13949 -73.48877 34527 ft 444 kts 84°
2026-05-07 07:14 62.14895 -73.35822 34531 ft 444 kts 84°
2026-05-07 07:15 62.15827 -73.22770 34537 ft 443 kts 84°
2026-05-07 07:15 62.16744 -73.09747 34531 ft 442 kts 84°
2026-05-07 07:16 62.17647 -72.96752 34532 ft 441 kts 84°
2026-05-07 07:16 62.18539 -72.83776 34545 ft 440 kts 84°
2026-05-07 07:17 62.19414 -72.70818 34539 ft 439 kts 84°
2026-05-07 07:17 62.20273 -72.57878 34545 ft 439 kts 84°
2026-05-07 07:18 62.21120 -72.44944 34549 ft 438 kts 84°
2026-05-07 07:18 62.21958 -72.32003 34557 ft 439 kts 84°
2026-05-07 07:19 62.22783 -72.19032 34555 ft 439 kts 85°
2026-05-07 07:19 62.23596 -72.06037 34555 ft 440 kts 85°
2026-05-07 07:20 62.24400 -71.93010 34567 ft 441 kts 85°
2026-05-07 07:20 62.25193 -71.79943 34579 ft 442 kts 85°
2026-05-07 07:21 62.25975 -71.66841 34560 ft 443 kts 85°
2026-05-07 07:21 62.26746 -71.53734 34580 ft 442 kts 85°
2026-05-07 07:22 62.27504 -71.40625 34569 ft 442 kts 85°
2026-05-07 07:22 62.28248 -71.27539 34567 ft 441 kts 85°
2026-05-07 07:23 62.28978 -71.14486 34586 ft 439 kts 85°
2026-05-07 07:23 62.29692 -71.01467 34576 ft 438 kts 85°
2026-05-07 07:24 62.30392 -70.88490 34577 ft 436 kts 86°
2026-05-07 07:24 62.31078 -70.75556 34577 ft 435 kts 86°
2026-05-07 07:25 62.32078 -70.56227 34589 ft 433 kts 86°
2026-05-07 07:26 62.32724 -70.43445 34590 ft 433 kts 86°
2026-05-07 07:26 62.33364 -70.30563 34590 ft 434 kts 86°
2026-05-07 07:27 62.33994 -70.17623 34594 ft 436 kts 86°
2026-05-07 07:27 62.34616 -70.04627 34591 ft 438 kts 86°
2026-05-07 07:28 62.35228 -69.91561 34603 ft 439 kts 86°
2026-05-07 07:28 62.35829 -69.78454 34604 ft 441 kts 86°
2026-05-07 07:29 62.36420 -69.65300 34603 ft 441 kts 86°
2026-05-07 07:29 62.37000 -69.52145 34602 ft 441 kts 86°
2026-05-07 07:30 62.37563 -69.39019 34595 ft 439 kts 87°
2026-05-07 07:30 62.38113 -69.25942 34595 ft 437 kts 87°
2026-05-07 07:31 62.38648 -69.12933 34600 ft 435 kts 87°
2026-05-07 07:31 62.39168 -68.99986 34606 ft 433 kts 87°
2026-05-07 07:32 62.39674 -68.87080 34607 ft 431 kts 87°
2026-05-07 07:32 62.40166 -68.74216 34603 ft 430 kts 87°
2026-05-07 07:33 62.40645 -68.61368 34608 ft 430 kts 88°
2026-05-07 07:33 62.41113 -68.48506 34613 ft 430 kts 88°
2026-05-07 07:34 62.41571 -68.35609 34631 ft 431 kts 88°
2026-05-07 07:34 62.42015 -68.22780 34661 ft 433 kts 88°
2026-05-07 07:35 62.42450 -68.09781 34669 ft 436 kts 88°
2026-05-07 07:35 62.42876 -67.96709 34669 ft 438 kts 88°
2026-05-07 07:36 62.43292 -67.83573 34668 ft 440 kts 88°
2026-05-07 07:36 62.43699 -67.70378 34665 ft 441 kts 88°
2026-05-07 07:37 62.44093 -67.57172 34662 ft 440 kts 88°
2026-05-07 07:37 62.44474 -67.43996 34662 ft 439 kts 88°
2026-05-07 07:38 62.44840 -67.30856 34657 ft 437 kts 88°
2026-05-07 07:38 62.45193 -67.17771 34665 ft 435 kts 89°
2026-05-07 07:39 62.45478 -67.06859 34657 ft 434 kts 89°
2026-05-07 07:39 62.45857 -66.91760 34656 ft 433 kts 89°
2026-05-07 07:40 62.46169 -66.78802 34668 ft 431 kts 89°
2026-05-07 07:40 62.46421 -66.67970 34677 ft 430 kts 89°
2026-05-07 07:41 62.46711 -66.55059 34669 ft 430 kts 89°
2026-05-07 07:41 62.46990 -66.42135 34673 ft 431 kts 89°
2026-05-07 07:42 62.47254 -66.29204 34681 ft 432 kts 89°
2026-05-07 07:42 62.47510 -66.16196 34677 ft 434 kts 90°
2026-05-07 07:43 62.47755 -66.03196 34683 ft 437 kts 90°
2026-05-07 07:43 62.47989 -65.90035 34689 ft 439 kts 90°
2026-05-07 07:44 62.48212 -65.76825 34689 ft 440 kts 90°
2026-05-07 07:44 62.48421 -65.63573 34683 ft 441 kts 90°
2026-05-07 07:45 62.48618 -65.50326 34684 ft 440 kts 90°
2026-05-07 07:45 62.48802 -65.37143 34691 ft 437 kts 90°
2026-05-07 07:46 62.48975 -65.24011 34689 ft 435 kts 90°
2026-05-07 07:46 62.49133 -65.10954 34692 ft 433 kts 91°
2026-05-07 07:47 62.49279 -64.97966 34688 ft 431 kts 91°
2026-05-07 07:47 62.49412 -64.85031 34699 ft 429 kts 91°
2026-05-07 07:48 62.49532 -64.72161 34703 ft 427 kts 91°
2026-05-07 07:48 62.49640 -64.59329 34697 ft 426 kts 91°
2026-05-07 07:49 62.49735 -64.46611 34705 ft 425 kts 91°
2026-05-07 07:49 62.49818 -64.33738 34711 ft 425 kts 91°
2026-05-07 07:50 62.49891 -64.21011 34715 ft 426 kts 91°
2026-05-07 07:50 62.49952 -64.08144 34719 ft 429 kts 91°
2026-05-07 07:51 62.50000 -63.95104 34716 ft 432 kts 92°
2026-05-07 07:51 62.50037 -63.82149 34711 ft 434 kts 92°
2026-05-07 07:52 62.50063 -63.69054 34710 ft 436 kts 92°
2026-05-07 07:52 62.50078 -63.55941 34710 ft 435 kts 92°
2026-05-07 07:53 62.50081 -63.42876 34748 ft 433 kts 92°
2026-05-07 07:53 62.50068 -63.29897 34791 ft 430 kts 92°
2026-05-07 07:54 62.50047 -63.17000 34836 ft 427 kts 92°
2026-05-07 07:54 62.50015 -63.04196 34884 ft 424 kts 92°
2026-05-07 07:55 62.50037 -62.91449 34933 ft 423 kts 91°
2026-05-07 07:55 62.50181 -62.78715 34956 ft 423 kts 91°
2026-05-07 07:56 62.50324 -62.65972 34968 ft 424 kts 91°
2026-05-07 07:56 62.50443 -62.53170 34967 ft 426 kts 91°
2026-05-07 07:57 62.50541 -62.40314 34964 ft 429 kts 92°
2026-05-07 07:57 62.50627 -62.27397 34974 ft 430 kts 92°
2026-05-07 07:58 62.50699 -62.14414 34976 ft 432 kts 92°
2026-05-07 07:58 62.50759 -62.01388 34975 ft 434 kts 92°
2026-05-07 07:59 62.50809 -61.88303 34975 ft 435 kts 92°
2026-05-07 07:59 62.50846 -61.75295 34972 ft 435 kts 92°
2026-05-07 08:00 62.50872 -61.62215 34982 ft 434 kts 92°
2026-05-07 08:00 62.50885 -61.49186 34972 ft 432 kts 92°
2026-05-07 08:01 62.50883 -61.36224 34974 ft 430 kts 93°
2026-05-07 08:01 62.50872 -61.23316 34983 ft 428 kts 93°
2026-05-07 08:02 62.50850 -61.10454 34982 ft 427 kts 93°
2026-05-07 08:02 62.50816 -60.97624 34982 ft 426 kts 93°
2026-05-07 08:03 62.50769 -60.84833 34981 ft 424 kts 94°
2026-05-07 08:03 62.50711 -60.72072 34984 ft 424 kts 94°
2026-05-07 08:04 62.50641 -60.59332 34988 ft 423 kts 94°
2026-05-07 08:04 62.50561 -60.46609 34989 ft 423 kts 94°
2026-05-07 08:05 62.50467 -60.33856 34997 ft 425 kts 94°
2026-05-07 08:05 62.50359 -60.21041 35008 ft 427 kts 94°
2026-05-07 08:06 62.50242 -60.08165 35046 ft 429 kts 94°
2026-05-07 08:06 62.50112 -59.95203 35063 ft 432 kts 95°
2026-05-07 08:07 62.49968 -59.82165 35062 ft 435 kts 95°
2026-05-07 08:07 62.49812 -59.69066 35056 ft 436 kts 95°
2026-05-07 08:08 62.49645 -59.55958 35054 ft 436 kts 95°
2026-05-07 08:08 62.49466 -59.42875 35057 ft 434 kts 95°
2026-05-07 08:09 62.49275 -59.29861 35063 ft 431 kts 95°
2026-05-07 08:09 62.49074 -59.17021 35062 ft 429 kts 95°
2026-05-07 08:10 62.48863 -59.04192 35061 ft 425 kts 96°
2026-05-07 08:10 62.48639 -58.91451 35059 ft 422 kts 96°
2026-05-07 08:11 62.48406 -58.78799 35062 ft 420 kts 96°
2026-05-07 08:11 62.48163 -58.66204 35063 ft 418 kts 96°
2026-05-07 08:12 62.47909 -58.53629 35074 ft 421 kts 96°
2026-05-07 08:12 62.47637 -58.40830 35075 ft 430 kts 96°
2026-05-07 08:13 62.47351 -58.27877 35063 ft 433 kts 96°
2026-05-07 08:13 62.47054 -58.14851 35065 ft 434 kts 96°
2026-05-07 08:14 62.46745 -58.01804 35063 ft 435 kts 96°
2026-05-07 08:14 62.46390 -57.88784 35063 ft 434 kts 97°
2026-05-07 08:15 62.45986 -57.75800 35066 ft 432 kts 97°
2026-05-07 08:15 62.45573 -57.62856 35065 ft 431 kts 97°
2026-05-07 08:16 62.45155 -57.49965 35067 ft 429 kts 97°
2026-05-07 08:16 62.44730 -57.37132 35064 ft 428 kts 97°
2026-05-07 08:17 62.44295 -57.24343 35062 ft 426 kts 98°
2026-05-07 08:17 62.43854 -57.11708 35069 ft 424 kts 98°
2026-05-07 08:18 62.43401 -56.99053 35073 ft 422 kts 98°
2026-05-07 08:18 62.42938 -56.86444 35072 ft 421 kts 98°
2026-05-07 08:19 62.42464 -56.73874 35076 ft 420 kts 98°
2026-05-07 08:19 62.41980 -56.61335 35082 ft 419 kts 98°
2026-05-07 08:20 62.41484 -56.48797 35085 ft 420 kts 98°
2026-05-07 08:20 62.40974 -56.36206 35089 ft 423 kts 99°
2026-05-07 08:21 62.40448 -56.23510 35073 ft 427 kts 99°
2026-05-07 08:21 62.39907 -56.10705 35067 ft 431 kts 99°
2026-05-07 08:22 62.39348 -55.97789 35069 ft 434 kts 99°
2026-05-07 08:22 62.38776 -55.84807 35098 ft 436 kts 99°
2026-05-07 08:23 62.38192 -55.71771 35103 ft 437 kts 99°
2026-05-07 08:23 62.37596 -55.58845 35103 ft 435 kts 99°
2026-05-07 08:24 62.36987 -55.45891 35109 ft 433 kts 99°
2026-05-07 08:24 62.36370 -55.33011 35107 ft 431 kts 99°
2026-05-07 08:25 62.35745 -55.20216 35106 ft 428 kts 99°
2026-05-07 08:25 62.35114 -55.07523 35104 ft 425 kts 99°
2026-05-07 08:26 62.34152 -54.88656 35108 ft 421 kts 100°
2026-05-07 08:26 62.33503 -54.76164 35112 ft 419 kts 100°
2026-05-07 08:27 62.32841 -54.63715 35120 ft 418 kts 100°
2026-05-07 08:27 62.32282 -54.53369 35130 ft 422 kts 100°
2026-05-07 08:28 62.31467 -54.38539 35135 ft 431 kts 100°
2026-05-07 08:28 62.30873 -54.27879 35128 ft 433 kts 101°
2026-05-07 08:29 62.30144 -54.14986 35130 ft 435 kts 101°
2026-05-07 08:29 62.29399 -54.02047 35127 ft 437 kts 101°
2026-05-07 08:30 62.28642 -53.89112 35124 ft 436 kts 101°
2026-05-07 08:30 62.27875 -53.76220 35130 ft 434 kts 101°
2026-05-07 08:31 62.27100 -53.63372 35131 ft 433 kts 101°
2026-05-07 08:31 62.26315 -53.50572 35126 ft 432 kts 101°
2026-05-07 08:32 62.25521 -53.37828 35129 ft 430 kts 101°
2026-05-07 08:32 62.24718 -53.25157 35121 ft 427 kts 101°
2026-05-07 08:33 62.23914 -53.12650 35130 ft 425 kts 101°
2026-05-07 08:33 62.23099 -53.00124 35129 ft 423 kts 101°
2026-05-07 08:34 62.22275 -52.87661 35129 ft 421 kts 101°
2026-05-07 08:34 62.21443 -52.75247 35127 ft 420 kts 101°
2026-05-07 08:35 62.20601 -52.62874 35130 ft 419 kts 101°
2026-05-07 08:35 62.19751 -52.50519 35132 ft 419 kts 101°
2026-05-07 08:36 62.18888 -52.38153 35143 ft 421 kts 101°
2026-05-07 08:36 62.18008 -52.25722 35146 ft 424 kts 102°
2026-05-07 08:37 62.17111 -52.13229 35135 ft 426 kts 102°
2026-05-07 08:37 62.16201 -52.00690 35140 ft 427 kts 102°
2026-05-07 08:38 62.15275 -51.88101 35141 ft 429 kts 102°
2026-05-07 08:38 62.14333 -51.75483 35139 ft 430 kts 102°
2026-05-07 08:39 62.13381 -51.62846 35144 ft 430 kts 102°
2026-05-07 08:39 62.12418 -51.50247 35146 ft 430 kts 102°
2026-05-07 08:40 62.11445 -51.37680 35151 ft 428 kts 102°
2026-05-07 08:40 62.10464 -51.25172 35147 ft 426 kts 102°
2026-05-07 08:41 62.09478 -51.12725 35144 ft 424 kts 102°
2026-05-07 08:41 62.08485 -51.00353 35152 ft 422 kts 103°
2026-05-07 08:42 62.07487 -50.88062 35156 ft 419 kts 103°
2026-05-07 08:42 62.06483 -50.75842 35157 ft 417 kts 103°
2026-05-07 08:43 62.05480 -50.63760 35166 ft 415 kts 103°
2026-05-07 08:43 62.04466 -50.51684 35175 ft 413 kts 104°
2026-05-07 08:44 62.03445 -50.39665 35171 ft 412 kts 104°
2026-05-07 08:44 62.02417 -50.27686 35173 ft 411 kts 104°
2026-05-07 08:45 62.01382 -50.15737 35181 ft 410 kts 104°
2026-05-07 08:45 62.00336 -50.03799 35187 ft 410 kts 104°
2026-05-07 08:46 61.99413 -49.91782 35187 ft 413 kts 102°
2026-05-07 08:46 61.98677 -49.79632 35185 ft 415 kts 101°
2026-05-07 08:47 61.97944 -49.67436 35202 ft 416 kts 101°
2026-05-07 08:47 61.97176 -49.55207 35193 ft 418 kts 102°
2026-05-07 08:48 61.96385 -49.42918 35193 ft 420 kts 102°
2026-05-07 08:48 61.95575 -49.30564 35203 ft 423 kts 102°
2026-05-07 08:49 61.94744 -49.18148 35211 ft 426 kts 102°
2026-05-07 08:49 61.93900 -49.05650 35213 ft 430 kts 102°
2026-05-07 08:50 61.93034 -48.93039 35212 ft 434 kts 102°
2026-05-07 08:50 61.92149 -48.80347 35216 ft 435 kts 102°
2026-05-07 08:51 61.91251 -48.67631 35209 ft 436 kts 102°
2026-05-07 08:51 61.90350 -48.54999 35211 ft 435 kts 102°
2026-05-07 08:52 61.89434 -48.42343 35226 ft 433 kts 102°
2026-05-07 08:52 61.88510 -48.29744 35220 ft 432 kts 102°
2026-05-07 08:53 61.87574 -48.17211 35230 ft 429 kts 101°
2026-05-07 08:53 61.86638 -48.04720 35222 ft 428 kts 102°
2026-05-07 08:54 61.85693 -47.92308 35223 ft 426 kts 102°
2026-05-07 08:54 61.84743 -47.79976 35223 ft 424 kts 102°
2026-05-07 08:55 61.83779 -47.67688 35235 ft 422 kts 101°
2026-05-07 08:55 61.82815 -47.55459 35235 ft 422 kts 102°
2026-05-07 08:56 61.81820 -47.43079 35250 ft 432 kts 102°
2026-05-07 08:56 61.80801 -47.30471 35231 ft 436 kts 102°
2026-05-07 08:57 61.79762 -47.17785 35234 ft 439 kts 102°
2026-05-07 08:57 61.78698 -47.05022 35245 ft 442 kts 102°
2026-05-07 08:58 61.77618 -46.92184 35250 ft 445 kts 102°
2026-05-07 08:58 61.76523 -46.79297 35247 ft 446 kts 102°
2026-05-07 08:59 61.75417 -46.66403 35252 ft 446 kts 102°
2026-05-07 08:59 61.74297 -46.53526 35246 ft 446 kts 102°
2026-05-07 09:00 61.73166 -46.40684 35245 ft 445 kts 101°
2026-05-07 09:00 61.72036 -46.27974 35249 ft 443 kts 101°
2026-05-07 09:01 61.70888 -46.15227 35260 ft 442 kts 101°
2026-05-07 09:01 61.69739 -46.02549 35278 ft 439 kts 101°
2026-05-07 09:02 61.68578 -45.89919 35279 ft 439 kts 102°
2026-05-07 09:02 61.67404 -45.77308 35280 ft 438 kts 102°
2026-05-07 09:03 61.66221 -45.64745 35283 ft 438 kts 102°
2026-05-07 09:03 61.65028 -45.52157 35286 ft 439 kts 102°
2026-05-07 09:04 61.63818 -45.39537 35287 ft 442 kts 102°
2026-05-07 09:04 61.62588 -45.26828 35297 ft 446 kts 102°
2026-05-07 09:05 61.61335 -45.14022 35299 ft 449 kts 102°
2026-05-07 09:05 61.60058 -45.01108 35296 ft 454 kts 102°
2026-05-07 09:06 61.58756 -44.88089 35299 ft 457 kts 102°
2026-05-07 09:06 61.57431 -44.74976 35293 ft 461 kts 101°
2026-05-07 09:07 61.56085 -44.61790 35296 ft 463 kts 101°
2026-05-07 09:07 61.54723 -44.48576 35295 ft 464 kts 101°
2026-05-07 09:08 61.53347 -44.35360 35294 ft 464 kts 101°
2026-05-07 09:08 61.51960 -44.22169 35279 ft 463 kts 101°
2026-05-07 09:09 61.50560 -44.08995 35287 ft 463 kts 101°
2026-05-07 09:09 61.49159 -43.95951 35281 ft 462 kts 101°
2026-05-07 09:10 61.47741 -43.82863 35283 ft 461 kts 101°
2026-05-07 09:10 61.46309 -43.69773 35272 ft 463 kts 102°
2026-05-07 09:11 61.44846 -43.56539 35289 ft 471 kts 102°
2026-05-07 09:11 61.43354 -43.43155 35282 ft 473 kts 103°
2026-05-07 09:12 61.41844 -43.29760 35283 ft 475 kts 103°
2026-05-07 09:12 61.40318 -43.16339 35277 ft 476 kts 103°
2026-05-07 09:13 61.38774 -43.02899 35289 ft 476 kts 103°
2026-05-07 09:13 61.37218 -42.89478 35289 ft 476 kts 103°
2026-05-07 09:14 61.35646 -42.76056 35283 ft 477 kts 103°
2026-05-07 09:14 61.34062 -42.62645 35288 ft 476 kts 103°
2026-05-07 09:15 61.32463 -42.49245 35279 ft 477 kts 103°
2026-05-07 09:15 61.31125 -42.38132 35273 ft 476 kts 103°
2026-05-07 09:16 61.29505 -42.24768 35275 ft 476 kts 103°
2026-05-07 09:16 61.27871 -42.11419 35276 ft 476 kts 103°
2026-05-07 09:17 61.26227 -41.98101 35282 ft 476 kts 103°
2026-05-07 09:17 61.24569 -41.84801 35276 ft 475 kts 103°
2026-05-07 09:18 61.22902 -41.71530 35277 ft 475 kts 103°
2026-05-07 09:18 61.21219 -41.58258 35273 ft 476 kts 103°
2026-05-07 09:19 61.19520 -41.44985 35288 ft 476 kts 103°
2026-05-07 09:19 61.17806 -41.31712 35283 ft 477 kts 103°
2026-05-07 09:20 61.16075 -41.18417 35292 ft 478 kts 103°
2026-05-07 09:20 61.14330 -41.05117 35287 ft 479 kts 103°
2026-05-07 09:21 61.12565 -40.91799 35288 ft 480 kts 103°
2026-05-07 09:21 61.10785 -40.78475 35295 ft 481 kts 103°
2026-05-07 09:22 61.08988 -40.65131 35284 ft 483 kts 103°
2026-05-07 09:22 61.07175 -40.51788 35291 ft 483 kts 103°
2026-05-07 09:23 61.05360 -40.38535 35281 ft 483 kts 103°
2026-05-07 09:23 61.03522 -40.25222 35284 ft 482 kts 103°
2026-05-07 09:24 61.01674 -40.11923 35283 ft 482 kts 103°
2026-05-07 09:24 60.99884 -39.98630 35278 ft 480 kts 97°
2026-05-07 09:25 60.98966 -39.85088 35289 ft 477 kts 92°
2026-05-07 09:25 60.98191 -39.71533 35286 ft 477 kts 92°
2026-05-07 09:26 60.97381 -39.57978 35286 ft 477 kts 92°
2026-05-07 09:26 60.96525 -39.44426 35285 ft 478 kts 93°
2026-05-07 09:27 60.95641 -39.30865 35286 ft 478 kts 93°
2026-05-07 09:28 60.94284 -39.10490 35286 ft 480 kts 93°
2026-05-07 09:28 60.93362 -38.96886 35283 ft 481 kts 93°
2026-05-07 09:29 60.92425 -38.83255 35287 ft 482 kts 93°
2026-05-07 09:29 60.91473 -38.69595 35285 ft 483 kts 93°
2026-05-07 09:30 60.90503 -38.55916 35286 ft 484 kts 93°
2026-05-07 09:30 60.89516 -38.42206 35285 ft 485 kts 93°
2026-05-07 09:31 60.88522 -38.28577 35284 ft 487 kts 93°
2026-05-07 09:31 60.87503 -38.14831 35285 ft 488 kts 93°
2026-05-07 09:32 60.86469 -38.01069 35286 ft 488 kts 93°
2026-05-07 09:32 60.85418 -37.87290 35290 ft 489 kts 93°
2026-05-07 09:33 60.84353 -37.73504 35297 ft 490 kts 94°
2026-05-07 09:33 60.83273 -37.59727 35293 ft 489 kts 94°
2026-05-07 09:34 60.82180 -37.45961 35295 ft 490 kts 94°
2026-05-07 09:34 60.81073 -37.32191 35295 ft 489 kts 94°
2026-05-07 09:35 60.79950 -37.18443 35293 ft 489 kts 94°
2026-05-07 09:35 60.78813 -37.04720 35295 ft 489 kts 94°
2026-05-07 09:36 60.77665 -36.91011 35303 ft 488 kts 94°
2026-05-07 09:36 60.76504 -36.77324 35305 ft 488 kts 94°
2026-05-07 09:37 60.75331 -36.63674 35304 ft 487 kts 94°
2026-05-07 09:37 60.74145 -36.50044 35304 ft 487 kts 94°
2026-05-07 09:38 60.72946 -36.36429 35303 ft 487 kts 94°
2026-05-07 09:38 60.71734 -36.22823 35301 ft 487 kts 94°
2026-05-07 09:39 60.70508 -36.09226 35305 ft 487 kts 94°
2026-05-07 09:39 60.69267 -35.95641 35304 ft 487 kts 94°
2026-05-07 09:40 60.68011 -35.82056 35307 ft 487 kts 94°
2026-05-07 09:40 60.66744 -35.68497 35306 ft 487 kts 94°
2026-05-07 09:41 60.65463 -35.54941 35308 ft 487 kts 95°
2026-05-07 09:41 60.64166 -35.41376 35303 ft 487 kts 95°
2026-05-07 09:42 60.62856 -35.27835 35310 ft 487 kts 95°
2026-05-07 09:42 60.61532 -35.14304 35303 ft 487 kts 95°
2026-05-07 09:43 60.60204 -35.00887 35307 ft 486 kts 95°
2026-05-07 09:43 60.58856 -34.87413 35301 ft 486 kts 95°
2026-05-07 09:44 60.57497 -34.73967 35303 ft 485 kts 96°
2026-05-07 09:44 60.56125 -34.60545 35302 ft 484 kts 96°
2026-05-07 09:45 60.54742 -34.47162 35302 ft 484 kts 96°
2026-05-07 09:45 60.53347 -34.33795 35301 ft 483 kts 96°
2026-05-07 09:46 60.51941 -34.20461 35304 ft 482 kts 96°
2026-05-07 09:46 60.50524 -34.07149 35305 ft 483 kts 96°
2026-05-07 09:47 60.49093 -33.93845 35306 ft 483 kts 96°
2026-05-07 09:47 60.47647 -33.80535 35307 ft 483 kts 96°
2026-05-07 09:48 60.46187 -33.67236 35303 ft 484 kts 97°
2026-05-07 09:48 60.44712 -33.53935 35307 ft 483 kts 97°
2026-05-07 09:49 60.43224 -33.40660 35302 ft 483 kts 97°
2026-05-07 09:49 60.41725 -33.27409 35304 ft 483 kts 97°
2026-05-07 09:50 60.40213 -33.14175 35303 ft 483 kts 97°
2026-05-07 09:50 60.38690 -33.00964 35305 ft 482 kts 98°
2026-05-07 09:51 60.37155 -32.87776 35304 ft 482 kts 98°
2026-05-07 09:51 60.35609 -32.74618 35305 ft 481 kts 98°
2026-05-07 09:52 60.34052 -32.61487 35301 ft 481 kts 98°
2026-05-07 09:52 60.32483 -32.48380 35301 ft 480 kts 98°
2026-05-07 09:53 60.30903 -32.35290 35305 ft 480 kts 99°
2026-05-07 09:53 60.29313 -32.22243 35301 ft 479 kts 99°
2026-05-07 09:54 60.27720 -32.09290 35305 ft 479 kts 99°
2026-05-07 09:54 60.26106 -31.96278 35304 ft 478 kts 99°
2026-05-07 09:55 60.24480 -31.83286 35304 ft 478 kts 99°
2026-05-07 09:55 60.22841 -31.70308 35301 ft 479 kts 99°
2026-05-07 09:56 60.21188 -31.57338 35309 ft 478 kts 99°
2026-05-07 09:56 60.19523 -31.44380 35302 ft 479 kts 100°
2026-05-07 09:57 60.17848 -31.31447 35301 ft 478 kts 100°
2026-05-07 09:57 60.16159 -31.18523 35301 ft 478 kts 100°
2026-05-07 09:58 60.14460 -31.05630 35295 ft 478 kts 100°
2026-05-07 09:58 60.12746 -30.92734 35273 ft 478 kts 101°
2026-05-07 09:59 60.11022 -30.79865 35254 ft 477 kts 101°
2026-05-07 09:59 60.09287 -30.67034 35254 ft 477 kts 101°
2026-05-07 10:00 60.07542 -30.54238 35264 ft 476 kts 101°
2026-05-07 10:00 60.05790 -30.41470 35258 ft 475 kts 101°
2026-05-07 10:01 60.04027 -30.28735 35268 ft 475 kts 101°
2026-05-07 10:01 60.02254 -30.16025 35255 ft 474 kts 101°
2026-05-07 10:02 60.00776 -30.05490 35258 ft 474 kts 101°
2026-05-07 10:02 59.98952 -29.92846 35256 ft 474 kts 102°
2026-05-07 10:03 59.97017 -29.80263 35249 ft 474 kts 103°
2026-05-07 10:03 59.95058 -29.67710 35249 ft 474 kts 103°
2026-05-07 10:04 59.93099 -29.55159 35249 ft 474 kts 103°
2026-05-07 10:04 59.91134 -29.42609 35253 ft 474 kts 103°
2026-05-07 10:05 59.89159 -29.30067 35248 ft 474 kts 103°
2026-05-07 10:05 59.87173 -29.17542 35245 ft 474 kts 103°
2026-05-07 10:06 59.85188 -29.05103 35240 ft 475 kts 103°
2026-05-07 10:06 59.83175 -28.92597 35238 ft 475 kts 104°
2026-05-07 10:07 59.81150 -28.80108 35240 ft 475 kts 104°
2026-05-07 10:07 59.79114 -28.67621 35241 ft 475 kts 104°
2026-05-07 10:08 59.77065 -28.55156 35234 ft 475 kts 104°
2026-05-07 10:08 59.75008 -28.42721 35232 ft 474 kts 104°
2026-05-07 10:09 59.72941 -28.30320 35227 ft 473 kts 104°
2026-05-07 10:09 59.70865 -28.17947 35230 ft 472 kts 105°
2026-05-07 10:10 59.68783 -28.05620 35231 ft 471 kts 105°
2026-05-07 10:10 59.66692 -27.93331 35231 ft 471 kts 105°
2026-05-07 10:11 59.64596 -27.81091 35218 ft 470 kts 105°
2026-05-07 10:11 59.62489 -27.68870 35222 ft 469 kts 105°
2026-05-07 10:12 59.60373 -27.56670 35220 ft 469 kts 105°
2026-05-07 10:12 59.58246 -27.44490 35222 ft 469 kts 105°
2026-05-07 10:13 59.56109 -27.32326 35221 ft 470 kts 106°
2026-05-07 10:13 59.53955 -27.20168 35221 ft 470 kts 106°
2026-05-07 10:14 59.51790 -27.08010 35223 ft 470 kts 106°
2026-05-07 10:14 59.49616 -26.95881 35220 ft 470 kts 106°
2026-05-07 10:15 59.47428 -26.83751 35226 ft 471 kts 106°
2026-05-07 10:15 59.45228 -26.71636 35223 ft 470 kts 106°
2026-05-07 10:16 59.43030 -26.59613 35223 ft 471 kts 107°
2026-05-07 10:16 59.40809 -26.47533 35219 ft 470 kts 107°
2026-05-07 10:17 59.38577 -26.35476 35222 ft 470 kts 107°
2026-05-07 10:17 59.36338 -26.23449 35220 ft 469 kts 107°
2026-05-07 10:18 59.34089 -26.11450 35221 ft 469 kts 107°
2026-05-07 10:18 59.31831 -25.99474 35211 ft 469 kts 107°
2026-05-07 10:19 59.29563 -25.87520 35214 ft 468 kts 108°
2026-05-07 10:19 59.27284 -25.75584 35210 ft 468 kts 108°
2026-05-07 10:20 59.24996 -25.63676 35211 ft 467 kts 108°
2026-05-07 10:20 59.22701 -25.51802 35212 ft 467 kts 108°
2026-05-07 10:21 59.20399 -25.39961 35213 ft 467 kts 108°
2026-05-07 10:21 59.18086 -25.28128 35211 ft 467 kts 108°
2026-05-07 10:22 59.15760 -25.16308 35206 ft 467 kts 108°
2026-05-07 10:22 59.13436 -25.04570 35201 ft 468 kts 108°
2026-05-07 10:23 59.11087 -24.92772 35204 ft 468 kts 109°
2026-05-07 10:23 59.08724 -24.80978 35204 ft 468 kts 109°
2026-05-07 10:24 59.06349 -24.69191 35202 ft 468 kts 109°
2026-05-07 10:24 59.03964 -24.57424 35203 ft 468 kts 109°
2026-05-07 10:25 59.01569 -24.45685 35205 ft 468 kts 109°
2026-05-07 10:25 58.99166 -24.33965 35199 ft 467 kts 109°
2026-05-07 10:26 58.96751 -24.22253 35205 ft 468 kts 109°
2026-05-07 10:26 58.94308 -24.10471 35202 ft 468 kts 110°
2026-05-07 10:27 58.91884 -23.98851 35202 ft 469 kts 110°
2026-05-07 10:27 58.89433 -23.87167 35207 ft 469 kts 110°
2026-05-07 10:28 58.86968 -23.75499 35202 ft 469 kts 110°
2026-05-07 10:28 58.84496 -23.63847 35192 ft 469 kts 110°
2026-05-07 10:29 58.82012 -23.52192 35194 ft 469 kts 110°
2026-05-07 10:29 58.79515 -23.40559 35209 ft 469 kts 110°
2026-05-07 10:30 58.75759 -23.23185 35212 ft 468 kts 111°
2026-05-07 10:30 58.73242 -23.11621 35214 ft 468 kts 111°
2026-05-07 10:31 58.70711 -23.00071 35213 ft 468 kts 111°
2026-05-07 10:31 58.68174 -22.88540 35211 ft 468 kts 111°
2026-05-07 10:32 58.65625 -22.77023 35211 ft 468 kts 111°
2026-05-07 10:32 58.63069 -22.65534 35215 ft 468 kts 111°
2026-05-07 10:33 58.60504 -22.54058 35185 ft 468 kts 112°
2026-05-07 10:33 58.57923 -22.42591 35140 ft 469 kts 112°
2026-05-07 10:34 58.55333 -22.31140 35127 ft 468 kts 112°
2026-05-07 10:34 58.52734 -22.19711 35119 ft 468 kts 112°
2026-05-07 10:35 58.50123 -22.08300 35123 ft 468 kts 112°
2026-05-07 10:35 58.47506 -21.96913 35117 ft 468 kts 112°
2026-05-07 10:36 58.44881 -21.85546 35121 ft 467 kts 112°
2026-05-07 10:36 58.42247 -21.74207 35120 ft 467 kts 112°
2026-05-07 10:37 58.39603 -21.62883 35118 ft 467 kts 112°
2026-05-07 10:37 58.36947 -21.51579 35123 ft 467 kts 113°
2026-05-07 10:38 58.34286 -21.40301 35119 ft 467 kts 113°
2026-05-07 10:38 58.31614 -21.29040 35119 ft 467 kts 113°
2026-05-07 10:39 58.28934 -21.17804 35111 ft 467 kts 113°
2026-05-07 10:39 58.26244 -21.06582 35111 ft 467 kts 114°
2026-05-07 10:40 58.23546 -20.95383 35112 ft 466 kts 114°
2026-05-07 10:40 58.20838 -20.84197 35111 ft 466 kts 114°
2026-05-07 10:41 58.18118 -20.73028 35105 ft 467 kts 114°
2026-05-07 10:41 58.15386 -20.61863 35101 ft 467 kts 114°
2026-05-07 10:42 58.12661 -20.50785 35100 ft 467 kts 115°
2026-05-07 10:42 58.09907 -20.39645 35081 ft 468 kts 115°
2026-05-07 10:43 58.07144 -20.28517 35095 ft 468 kts 115°
2026-05-07 10:43 58.04368 -20.17395 35095 ft 468 kts 115°
2026-05-07 10:44 58.01586 -20.06299 35090 ft 468 kts 115°
2026-05-07 10:44 57.99030 -19.95039 35095 ft 467 kts 109°
2026-05-07 10:45 57.96993 -19.83410 35078 ft 468 kts 108°
2026-05-07 10:45 57.94980 -19.71761 35067 ft 468 kts 108°
2026-05-07 10:46 57.92932 -19.60145 35064 ft 468 kts 108°
2026-05-07 10:46 57.90854 -19.48548 35067 ft 467 kts 109°
2026-05-07 10:47 57.89117 -19.38938 35064 ft 467 kts 109°
2026-05-07 10:47 57.86656 -19.25411 35068 ft 468 kts 109°
2026-05-07 10:48 57.84898 -19.15799 35059 ft 468 kts 109°
2026-05-07 10:48 57.82773 -19.04239 35069 ft 469 kts 109°
2026-05-07 10:49 57.80636 -18.92685 35061 ft 469 kts 110°
2026-05-07 10:49 57.78485 -18.81131 35063 ft 469 kts 110°
2026-05-07 10:50 57.76323 -18.69593 35066 ft 470 kts 110°
2026-05-07 10:50 57.74146 -18.58050 35059 ft 470 kts 110°
2026-05-07 10:51 57.71961 -18.46514 35056 ft 470 kts 110°
2026-05-07 10:51 57.69766 -18.34995 35057 ft 470 kts 111°
2026-05-07 10:52 57.67573 -18.23566 35054 ft 470 kts 111°
2026-05-07 10:52 57.65355 -18.12076 35057 ft 470 kts 111°
2026-05-07 10:53 57.63128 -18.00604 35056 ft 470 kts 111°
2026-05-07 10:53 57.60892 -17.89156 35054 ft 470 kts 111°
2026-05-07 10:54 57.58647 -17.77722 35056 ft 470 kts 111°
2026-05-07 10:54 57.56391 -17.66296 35049 ft 470 kts 111°
2026-05-07 10:55 57.54123 -17.54879 35046 ft 470 kts 112°
2026-05-07 10:55 57.51845 -17.43482 35046 ft 470 kts 112°
2026-05-07 10:56 57.49557 -17.32100 35050 ft 470 kts 112°
2026-05-07 10:56 57.47261 -17.20737 35044 ft 470 kts 112°
2026-05-07 10:57 57.44953 -17.09385 35042 ft 469 kts 113°
2026-05-07 10:57 57.42639 -16.98067 35047 ft 469 kts 113°
2026-05-07 10:58 57.40318 -16.86779 35040 ft 468 kts 113°
2026-05-07 10:58 57.37987 -16.75507 35034 ft 468 kts 113°
2026-05-07 10:59 57.35650 -16.64266 35040 ft 467 kts 113°
2026-05-07 10:59 57.33304 -16.53046 35038 ft 467 kts 114°
2026-05-07 11:00 57.30964 -16.41914 35038 ft 467 kts 114°
2026-05-07 11:00 57.28599 -16.30727 35036 ft 467 kts 114°
2026-05-07 11:01 57.26227 -16.19564 35029 ft 467 kts 114°
2026-05-07 11:01 57.23846 -16.08422 35029 ft 466 kts 114°
2026-05-07 11:02 57.21456 -15.97299 35027 ft 466 kts 115°
2026-05-07 11:02 57.19059 -15.86198 35029 ft 466 kts 115°
2026-05-07 11:03 57.16652 -15.75118 35026 ft 466 kts 115°
2026-05-07 11:03 57.14236 -15.64054 35025 ft 465 kts 115°
2026-05-07 11:04 57.11811 -15.53006 35018 ft 465 kts 115°
2026-05-07 11:04 57.09377 -15.41976 35018 ft 465 kts 115°
2026-05-07 11:05 57.06936 -15.30973 35017 ft 465 kts 116°
2026-05-07 11:05 57.04504 -15.20062 35018 ft 464 kts 116°
2026-05-07 11:06 57.02050 -15.09100 34985 ft 465 kts 116°
2026-05-07 11:06 56.99198 -14.98554 34951 ft 458 kts 129°
2026-05-07 11:07 56.95115 -14.89746 34907 ft 452 kts 137°
2026-05-07 11:07 56.90850 -14.81292 34903 ft 452 kts 137°
2026-05-07 11:08 56.86611 -14.72823 34893 ft 451 kts 137°
2026-05-07 11:08 56.82405 -14.64361 34897 ft 449 kts 137°
2026-05-07 11:09 56.78216 -14.55936 34896 ft 448 kts 137°
2026-05-07 11:09 56.74032 -14.47553 34896 ft 446 kts 137°
2026-05-07 11:10 56.69854 -14.39218 34890 ft 445 kts 138°
2026-05-07 11:10 56.65682 -14.30924 34888 ft 444 kts 138°
2026-05-07 11:11 56.61518 -14.22673 34888 ft 442 kts 138°
2026-05-07 11:11 56.57355 -14.14458 34890 ft 441 kts 139°
2026-05-07 11:12 56.53201 -14.06280 34889 ft 441 kts 139°
2026-05-07 11:12 56.49198 -13.97936 34881 ft 447 kts 130°
2026-05-07 11:13 56.45859 -13.88412 34887 ft 449 kts 128°
2026-05-07 11:13 56.42590 -13.78795 34879 ft 449 kts 128°
2026-05-07 11:14 56.39296 -13.69227 34880 ft 448 kts 128°
2026-05-07 11:14 56.35982 -13.59725 34879 ft 447 kts 128°
2026-05-07 11:15 56.32657 -13.50268 34877 ft 447 kts 129°
2026-05-07 11:15 56.29324 -13.40836 34877 ft 446 kts 129°
2026-05-07 11:16 56.25986 -13.31416 34882 ft 446 kts 129°
2026-05-07 11:16 56.22642 -13.22012 34883 ft 446 kts 129°
2026-05-07 11:17 56.19290 -13.12623 34882 ft 447 kts 129°
2026-05-07 11:17 56.15928 -13.03243 34882 ft 447 kts 130°
2026-05-07 11:18 56.12561 -12.93886 34881 ft 446 kts 130°
2026-05-07 11:18 56.09186 -12.84540 34877 ft 447 kts 130°
2026-05-07 11:19 56.05807 -12.75220 34880 ft 446 kts 130°
2026-05-07 11:19 56.02427 -12.65930 34880 ft 445 kts 131°
2026-05-07 11:20 55.99046 -12.56676 34880 ft 444 kts 131°
2026-05-07 11:20 55.95672 -12.47473 34878 ft 442 kts 131°
2026-05-07 11:21 55.92305 -12.38325 34877 ft 440 kts 131°
2026-05-07 11:21 55.88943 -12.29227 34877 ft 438 kts 132°
2026-05-07 11:22 55.85590 -12.20186 34876 ft 437 kts 132°
2026-05-07 11:22 55.82262 -12.11243 34881 ft 436 kts 132°
2026-05-07 11:23 55.78908 -12.02274 34881 ft 435 kts 132°
2026-05-07 11:23 55.75549 -11.93316 34880 ft 435 kts 132°
2026-05-07 11:24 55.72184 -11.84376 34880 ft 435 kts 132°
2026-05-07 11:24 55.68816 -11.75459 34879 ft 435 kts 132°
2026-05-07 11:25 55.65439 -11.66551 34882 ft 435 kts 132°
2026-05-07 11:25 55.62059 -11.57669 34880 ft 435 kts 132°
2026-05-07 11:26 55.58671 -11.48800 34878 ft 435 kts 132°
2026-05-07 11:26 55.55277 -11.39949 34883 ft 435 kts 132°
2026-05-07 11:27 55.51879 -11.31109 34878 ft 435 kts 131°
2026-05-07 11:27 55.48482 -11.22303 34889 ft 434 kts 131°
2026-05-07 11:28 55.45103 -11.13581 34888 ft 433 kts 131°
2026-05-07 11:28 55.41679 -11.04776 34887 ft 433 kts 131°
2026-05-07 11:29 55.38276 -10.96053 34891 ft 432 kts 131°
2026-05-07 11:29 55.34871 -10.87357 34887 ft 432 kts 131°
2026-05-07 11:30 55.31467 -10.78692 34887 ft 431 kts 131°
2026-05-07 11:30 55.28060 -10.70052 34891 ft 430 kts 131°
2026-05-07 11:31 55.24674 -10.61492 34890 ft 430 kts 131°
2026-05-07 11:31 55.21264 -10.52907 34896 ft 429 kts 131°
2026-05-07 11:32 55.16149 -10.40078 34897 ft 428 kts 131°
2026-05-07 11:33 55.12737 -10.31556 34906 ft 427 kts 131°
2026-05-07 11:33 55.09319 -10.23055 34909 ft 427 kts 131°
2026-05-07 11:34 55.05898 -10.14569 34908 ft 428 kts 131°
2026-05-07 11:34 55.02469 -10.06087 34914 ft 428 kts 131°
2026-05-07 11:35 54.99219 -9.97376 34906 ft 435 kts 122°
2026-05-07 11:35 54.97106 -9.89406 34916 ft 437 kts 120°
2026-05-07 11:36 54.94634 -9.79761 34919 ft 436 kts 120°
2026-05-07 11:36 54.92137 -9.70152 34915 ft 435 kts 120°
2026-05-07 11:37 54.89613 -9.60591 34917 ft 434 kts 120°
2026-05-07 11:37 54.87080 -9.51069 34918 ft 434 kts 120°
2026-05-07 11:38 54.84541 -9.41579 34915 ft 433 kts 120°
2026-05-07 11:38 54.81998 -9.32113 34917 ft 433 kts 120°
2026-05-07 11:39 54.79469 -9.22738 34912 ft 432 kts 120°
2026-05-07 11:39 54.76918 -9.13312 34917 ft 431 kts 120°
2026-05-07 11:40 54.74363 -9.03905 34916 ft 432 kts 120°
2026-05-07 11:40 54.71802 -8.94519 34918 ft 431 kts 120°
2026-05-07 11:41 54.69233 -8.85147 34917 ft 431 kts 120°
2026-05-07 11:41 54.66663 -8.75809 34921 ft 430 kts 120°
2026-05-07 11:42 54.64089 -8.66492 34925 ft 429 kts 120°
2026-05-07 11:42 54.61510 -8.57199 34920 ft 429 kts 120°
2026-05-07 11:43 54.58927 -8.47922 34912 ft 429 kts 120°
2026-05-07 11:43 54.56355 -8.38736 34914 ft 428 kts 120°
2026-05-07 11:44 54.53765 -8.29503 34918 ft 427 kts 120°
2026-05-07 11:44 54.51176 -8.20313 34916 ft 426 kts 120°
2026-05-07 11:45 54.48583 -8.11153 34915 ft 425 kts 120°
2026-05-07 11:45 54.45988 -8.02018 34916 ft 425 kts 120°
2026-05-07 11:46 54.43391 -7.92910 34919 ft 424 kts 120°
2026-05-07 11:46 54.40793 -7.83837 34918 ft 423 kts 120°
2026-05-07 11:47 54.38270 -7.75057 34917 ft 422 kts 120°
2026-05-07 11:47 54.35665 -7.66029 34914 ft 422 kts 120°
2026-05-07 11:48 54.33055 -7.57010 34918 ft 423 kts 120°
2026-05-07 11:48 54.30438 -7.48001 34913 ft 423 kts 120°
2026-05-07 11:49 54.27708 -7.39106 34907 ft 420 kts 127°
2026-05-07 11:49 54.24036 -7.31443 34917 ft 416 kts 135°
2026-05-07 11:50 54.20186 -7.24045 34922 ft 416 kts 135°
2026-05-07 11:50 54.16371 -7.16684 34927 ft 417 kts 135°
2026-05-07 11:51 54.12535 -7.09239 34934 ft 418 kts 135°
2026-05-07 11:51 54.08697 -7.01785 34936 ft 419 kts 134°
2026-05-07 11:52 54.04845 -6.94322 34938 ft 420 kts 134°
2026-05-07 11:52 54.00979 -6.86855 34946 ft 421 kts 134°
2026-05-07 11:53 53.97106 -6.79396 34951 ft 421 kts 134°
2026-05-07 11:53 53.93229 -6.71951 34954 ft 421 kts 134°
2026-05-07 11:54 53.89342 -6.64514 34954 ft 421 kts 134°
2026-05-07 11:54 53.85452 -6.57094 34955 ft 421 kts 134°
2026-05-07 11:55 53.81561 -6.49686 34951 ft 420 kts 134°
2026-05-07 11:55 53.77672 -6.42310 34960 ft 419 kts 134°
2026-05-07 11:56 53.73783 -6.34958 34963 ft 419 kts 134°
2026-05-07 11:56 53.69892 -6.27627 34959 ft 419 kts 134°
2026-05-07 11:57 53.66006 -6.20321 34963 ft 418 kts 134°
2026-05-07 11:57 53.62119 -6.13037 34970 ft 417 kts 134°
2026-05-07 11:58 53.58231 -6.05767 34974 ft 418 kts 134°
2026-05-07 11:58 53.54337 -5.98516 34972 ft 418 kts 134°
2026-05-07 11:59 53.50441 -5.91278 34973 ft 418 kts 134°
2026-05-07 11:59 53.46536 -5.84047 34972 ft 418 kts 134°
2026-05-07 12:00 53.42627 -5.76829 34974 ft 418 kts 134°
2026-05-07 12:00 53.38715 -5.69626 34973 ft 417 kts 134°
2026-05-07 12:01 53.34826 -5.62483 34978 ft 418 kts 134°
2026-05-07 12:01 53.30904 -5.55296 34981 ft 418 kts 132°
2026-05-07 12:01 53.29249 -5.51288 34979 ft 421 kts 118°
2026-05-07 12:02 53.28152 -5.46749 34995 ft 424 kts 108°
2026-05-07 12:02 53.27647 -5.41892 34997 ft 427 kts 95°
2026-05-07 12:02 53.27522 -5.36947 35006 ft 427 kts 94°
2026-05-07 12:03 53.27355 -5.27025 34999 ft 427 kts 94°
2026-05-07 12:03 53.27084 -5.17116 35009 ft 427 kts 95°
2026-05-07 12:04 53.26759 -5.07220 35009 ft 427 kts 95°
2026-05-07 12:04 53.26419 -4.97314 35013 ft 427 kts 95°
2026-05-07 12:05 53.26078 -4.87409 35020 ft 427 kts 95°
2026-05-07 12:05 53.25733 -4.77503 35019 ft 428 kts 95°
2026-05-07 12:06 53.25387 -4.67584 35017 ft 428 kts 95°
2026-05-07 12:06 53.25052 -4.57675 35020 ft 427 kts 95°
2026-05-07 12:07 53.24712 -4.47762 35020 ft 428 kts 95°
2026-05-07 12:07 53.24363 -4.37860 35019 ft 428 kts 95°
2026-05-07 12:08 53.24004 -4.27949 35018 ft 428 kts 95°
2026-05-07 12:08 53.23636 -4.18041 35021 ft 427 kts 95°
2026-05-07 12:09 53.23266 -4.08215 35019 ft 427 kts 95°
2026-05-07 12:09 53.22882 -3.98324 35029 ft 427 kts 95°
2026-05-07 12:10 53.22477 -3.88447 35033 ft 427 kts 95°
2026-05-07 12:10 53.22109 -3.79684 35026 ft 426 kts 95°
2026-05-07 12:11 53.21711 -3.70304 35030 ft 426 kts 96°
2026-05-07 12:11 53.21279 -3.60330 35022 ft 427 kts 96°
2026-05-07 12:12 53.20840 -3.50472 35025 ft 425 kts 96°
2026-05-07 12:12 53.20395 -3.40644 35038 ft 425 kts 96°
2026-05-07 12:13 53.19945 -3.30811 35039 ft 425 kts 96°
2026-05-07 12:13 53.19073 -3.21176 35038 ft 422 kts 111°
2026-05-07 12:13 53.17863 -3.16750 35049 ft 420 kts 122°
2026-05-07 12:14 53.16160 -3.12828 35045 ft 417 kts 132°
2026-05-07 12:14 53.12260 -3.05664 35047 ft 418 kts 134°
2026-05-07 12:15 53.08304 -2.98413 35059 ft 430 kts 133°
2026-05-07 12:15 53.04263 -2.90874 35056 ft 443 kts 133°
2026-05-07 12:16 53.00106 -2.83142 35054 ft 453 kts 133°
2026-05-07 12:16 52.95907 -2.75359 35040 ft 452 kts 133°
2026-05-07 12:17 52.91709 -2.67597 35042 ft 452 kts 133°
2026-05-07 12:17 52.87509 -2.59854 35046 ft 452 kts 133°
2026-05-07 12:18 52.83305 -2.52127 35045 ft 452 kts 133°
2026-05-07 12:18 52.78688 -2.45142 35040 ft 450 kts 147°
2026-05-07 12:19 52.73430 -2.39525 35040 ft 451 kts 148°
2026-05-07 12:19 52.68177 -2.33859 35046 ft 451 kts 147°
2026-05-07 12:20 52.62956 -2.28130 35046 ft 452 kts 147°
2026-05-07 12:20 52.57732 -2.22380 35049 ft 452 kts 147°
2026-05-07 12:21 52.52499 -2.16637 35054 ft 452 kts 147°
2026-05-07 12:21 52.47262 -2.10915 35056 ft 452 kts 147°
2026-05-07 12:21 52.44623 -2.08037 34465 ft 460 kts 147°
2026-05-07 12:22 52.41979 -2.05159 33890 ft 453 kts 146°
2026-05-07 12:22 52.39348 -2.02297 32789 ft 457 kts 146°
2026-05-07 12:22 52.36702 -1.99420 31889 ft 455 kts 146°
2026-05-07 12:22 52.34071 -1.96566 30937 ft 454 kts 146°
2026-05-07 12:23 52.31432 -1.93709 29913 ft 454 kts 146°
2026-05-07 12:23 52.29687 -1.91822 29183 ft 454 kts 146°
2026-05-07 12:23 52.26107 -1.88157 27629 ft 455 kts 152°
2026-05-07 12:23 52.23253 -1.86043 26447 ft 457 kts 157°
2026-05-07 12:24 52.20320 -1.84050 25438 ft 454 kts 158°
2026-05-07 12:24 52.17425 -1.82103 24547 ft 447 kts 158°
2026-05-07 12:24 52.15490 -1.80795 23937 ft 443 kts 158°
2026-05-07 12:24 52.12661 -1.78867 23061 ft 438 kts 158°
2026-05-07 12:25 52.09874 -1.76953 22189 ft 432 kts 158°
2026-05-07 12:25 52.07122 -1.75056 21320 ft 427 kts 158°
2026-05-07 12:25 52.03530 -1.72577 20178 ft 420 kts 158°
2026-05-07 12:25 52.01719 -1.71327 19591 ft 416 kts 158°
2026-05-07 12:26 51.99068 -1.69502 18736 ft 411 kts 158°
2026-05-07 12:26 51.96446 -1.67698 17881 ft 407 kts 158°
2026-05-07 12:26 51.93887 -1.65941 17041 ft 402 kts 158°
2026-05-07 12:26 51.91291 -1.64160 16175 ft 397 kts 158°
2026-05-07 12:27 51.88793 -1.62450 15348 ft 393 kts 158°
2026-05-07 12:27 51.86357 -1.60543 14732 ft 386 kts 152°
2026-05-07 12:27 51.84061 -1.58334 14232 ft 382 kts 150°
2026-05-07 12:27 51.81785 -1.56083 13735 ft 385 kts 149°
2026-05-07 12:28 51.79489 -1.53819 13225 ft 388 kts 149°
2026-05-07 12:28 51.77185 -1.51570 12711 ft 385 kts 150°
2026-05-07 12:28 51.74899 -1.49360 12206 ft 381 kts 150°
2026-05-07 12:28 51.72627 -1.47177 11692 ft 369 kts 150°
2026-05-07 12:29 51.70483 -1.45120 11228 ft 358 kts 150°
2026-05-07 12:29 51.68281 -1.43292 10836 ft 344 kts 159°
2026-05-07 12:29 51.66080 -1.41966 10529 ft 332 kts 161°
2026-05-07 12:29 51.63938 -1.40744 10218 ft 322 kts 162°
2026-05-07 12:30 51.61863 -1.39565 9988 ft 310 kts 162°
2026-05-07 12:30 51.59892 -1.38436 9986 ft 292 kts 162°
2026-05-07 12:30 51.58149 -1.37429 9973 ft 276 kts 161°
2026-05-07 12:30 51.56313 -1.36361 9656 ft 267 kts 161°
2026-05-07 12:31 51.54584 -1.35355 9101 ft 269 kts 162°
2026-05-07 12:31 51.52830 -1.34332 8709 ft 265 kts 162°
2026-05-07 12:31 51.51108 -1.33325 8433 ft 262 kts 161°
2026-05-07 12:31 51.49398 -1.32326 8181 ft 262 kts 161°
2026-05-07 12:32 51.47685 -1.31325 7925 ft 263 kts 161°
2026-05-07 12:32 51.45953 -1.30313 7685 ft 267 kts 161°
2026-05-07 12:32 51.44207 -1.29292 7432 ft 266 kts 161°
2026-05-07 12:32 51.42483 -1.28283 7172 ft 261 kts 161°
2026-05-07 12:33 51.39117 -1.26320 6682 ft 255 kts 161°
2026-05-07 12:33 51.37450 -1.25348 6460 ft 254 kts 160°
2026-05-07 12:33 51.35785 -1.24378 6190 ft 255 kts 160°
2026-05-07 12:34 51.34113 -1.23448 5949 ft 254 kts 166°
2026-05-07 12:34 51.32372 -1.23308 5721 ft 249 kts 183°
2026-05-07 12:34 51.30634 -1.23464 5450 ft 251 kts 182°
2026-05-07 12:34 51.28895 -1.23612 5247 ft 250 kts 182°
2026-05-07 12:35 51.27158 -1.23755 5011 ft 249 kts 182°
2026-05-07 12:35 51.25433 -1.23895 4766 ft 247 kts 182°
2026-05-07 12:35 51.23722 -1.24029 4532 ft 246 kts 182°
2026-05-07 12:35 51.22024 -1.24173 4324 ft 244 kts 184°
2026-05-07 12:36 51.20328 -1.24319 4091 ft 242 kts 181°
2026-05-07 12:36 51.18649 -1.24569 3821 ft 243 kts 191°
2026-05-07 12:36 51.17010 -1.25243 3619 ft 244 kts 193°
2026-05-07 12:36 51.15366 -1.25902 3369 ft 242 kts 194°
2026-05-07 12:37 51.13746 -1.26518 3213 ft 234 kts 192°
2026-05-07 12:37 51.12215 -1.27090 3153 ft 221 kts 192°
2026-05-07 12:37 51.10756 -1.27610 3040 ft 209 kts 192°
2026-05-07 12:37 51.09395 -1.28150 2940 ft 195 kts 191°
2026-05-07 12:38 51.08113 -1.28556 2814 ft 182 kts 191°
2026-05-07 12:38 51.06864 -1.29091 2433 ft 189 kts 196°
2026-05-07 12:38 51.05636 -1.29753 2168 ft 185 kts 198°
2026-05-07 12:38 51.04443 -1.30421 1918 ft 178 kts 198°
2026-05-07 12:39 51.03293 -1.31063 1667 ft 173 kts 198°
2026-05-07 12:39 51.02197 -1.31676 1455 ft 159 kts 198°
2026-05-07 12:39 51.01157 -1.32277 1242 ft 159 kts 196°
2026-05-07 12:39 51.00128 -1.32834 1009 ft 152 kts 197°
2026-05-07 12:40 50.99148 -1.33379 801 ft 151 kts 198°
2026-05-07 12:40 50.98166 -1.33926 616 ft 150 kts 197°
2026-05-07 12:40 50.97156 -1.34480 357 ft 152 kts 199°
2026-05-07 12:40 50.96236 -1.35006 170 ft 148 kts 198°
2026-05-07 12:41 50.95290 -1.35528 40 ft 135 kts 198°
2026-05-07 12:41 50.94607 -1.35909 36 ft 73 kts 199°
2026-05-07 12:41 50.94365 -1.36052 35 ft 17 kts 211°
2026-05-07 12:41 50.94311 -1.36076 35 ft 4 kts 101°
2026-05-07 12:42 50.94343 -1.36050 37 ft 7 kts 18°
2026-05-07 12:42 50.94403 -1.36019 37 ft 11 kts 17°
2026-05-07 12:42 50.94488 -1.35977 37 ft 14 kts 18°
2026-05-07 12:42 50.94561 -1.35979 37 ft 10 kts 313°
2026-05-07 12:43 50.94584 -1.36079 38 ft 10 kts 291°
2026-05-07 12:43 50.94637 -1.36141 37 ft 11 kts 350°
2026-05-07 12:43 50.94717 -1.36111 38 ft 12 kts 20°
2026-05-07 12:43 50.94794 -1.36068 36 ft 12 kts 19°
2026-05-07 12:44 50.94869 -1.36025 37 ft 11 kts 19°
2026-05-07 12:44 50.94916 -1.35999 38 ft 6 kts 19°
2026-05-07 12:44 50.94956 -1.35977 38 ft 6 kts 19°
2026-05-07 12:44 50.94995 -1.35955 38 ft 6 kts 19°
2026-05-07 12:45 50.95034 -1.35933 38 ft 7 kts 19°
2026-05-07 12:45 50.95086 -1.35903 38 ft 9 kts 19°
2026-05-07 12:45 50.95157 -1.35863 38 ft 12 kts 19°
2026-05-07 12:45 50.95235 -1.35819 38 ft 12 kts 19°
2026-05-07 12:46 50.95311 -1.35776 38 ft 11 kts 19°
2026-05-07 12:46 50.95376 -1.35740 38 ft 8 kts 20°
2026-05-07 12:46 50.95418 -1.35754 38 ft 7 kts 298°
2026-05-07 12:46 50.95428 -1.35798 38 ft 2 kts 289°
2026-05-07 12:47 50.95429 -1.35803 38 ft 0 kts 289°